Bigfork, MN

10:14 PM CDT on April 26, 2018 (GMT -0500)
Bigfork Municipal

Weather History for KFOZ - November, 2013

Change the Weather History Date:

Tuesday, November 19, 2013

  Actual Average (KGPZ) Record (KGPZ)
Temperature  
Mean Temperature 30 °F -  
Max Temperature 41 °F 33 °F 53 °F (2012)
Min Temperature 21 °F 20 °F -14 °F (1932)
Degree Days  
Heating Degree Days 35    
Moisture  
Dew Point 20 °F    
Average Humidity 68    
Maximum Humidity 86    
Minimum Humidity 48    
Precipitation  
Precipitation 0.00 in - - ()
Sea Level Pressure  
Sea Level Pressure 29.96 in    
Wind  
Wind Speed 7 mph (SSE)    
Max Wind Speed 22 mph    
Max Gust Speed 30 mph    
Visibility 10 miles    
Events      
Averages and records for this station are not official NWS values.
T = Trace of Precipitation, MM = Missing Value Source: NWS Daily Summary

Daily Weather History Graph

Daily Weather History Graph

Search for Another Location

Airport or City:

Astronomy

Nov. 19, 2013 Rise Set
Actual Time 7:26 AM CST 4:33 PM CST
Civil Twilight 6:52 AM CST 5:07 PM CST
Nautical Twilight 6:14 AM CST 5:45 PM CST
Astronomical Twilight 5:37 AM CST 6:21 PM CST
Moon 6:23 PM CST (11/19) 9:07 AM CST (11/19)
Length of Visible Light 10h 14m
Length of Day
9h 06m
Waning Gibbous, 96% of the Moon is Illuminated
Nov 19
Waning Gibbous
Nov 25
Last Quarter
Dec 2
New
Dec 9
First Quarter
Dec 17
Full

Hourly Weather History & Observations

Time (CST) Temp. Windchill Dew Point Humidity Pressure Visibility Wind Dir Wind Speed Gust Speed Precip Events Conditions
12:13 AM 23.0 °F - 17.6 °F 80% 30.20 in 10.0 mi Calm Calm - N/A   Overcast
12:33 AM 23.0 °F 17.0 °F 17.6 °F 80% 30.19 in 10.0 mi South 4.6 mph - N/A   Overcast
12:53 AM 23.0 °F 18.4 °F 17.6 °F 80% 30.19 in 10.0 mi SE 3.5 mph - N/A   Overcast
1:13 AM 23.0 °F - 17.6 °F 80% 30.19 in 10.0 mi Calm Calm - N/A   Overcast
1:33 AM 23.0 °F - 17.6 °F 80% 30.19 in 10.0 mi Calm Calm - N/A   Overcast
1:53 AM 23.0 °F - 17.6 °F 80% 30.19 in 10.0 mi Calm Calm - N/A   Overcast
2:13 AM 23.0 °F 18.4 °F 17.6 °F 80% 30.20 in 10.0 mi SE 3.5 mph - N/A   Overcast
2:33 AM 23.0 °F 18.4 °F 17.6 °F 80% 30.19 in 10.0 mi SE 3.5 mph - N/A   Overcast
2:53 AM 23.0 °F - 17.6 °F 80% 30.19 in 10.0 mi Calm Calm - N/A   Mostly Cloudy
3:13 AM 23.0 °F 18.4 °F 17.6 °F 80% 30.18 in 10.0 mi SSE 3.5 mph - N/A   Mostly Cloudy
3:33 AM 21.2 °F 16.4 °F 17.6 °F 86% 30.18 in 10.0 mi SSE 3.5 mph - N/A   Mostly Cloudy
3:53 AM 21.2 °F 14.9 °F 17.6 °F 86% 30.17 in 10.0 mi SE 4.6 mph - N/A   Mostly Cloudy
4:13 AM 21.2 °F 16.4 °F 17.6 °F 86% 30.17 in 10.0 mi SSE 3.5 mph - N/A   Scattered Clouds
4:33 AM 21.2 °F 14.9 °F 17.6 °F 86% 30.17 in 10.0 mi SSE 4.6 mph - N/A   Scattered Clouds
4:53 AM 21.2 °F 14.9 °F 17.6 °F 86% 30.15 in 10.0 mi SE 4.6 mph - N/A   Mostly Cloudy
5:13 AM 21.2 °F 14.9 °F 17.6 °F 86% 30.16 in 10.0 mi SSE 4.6 mph - N/A   Mostly Cloudy
5:33 AM 21.2 °F 14.9 °F 17.6 °F 86% 30.15 in 10.0 mi SSE 4.6 mph - N/A   Clear
5:53 AM 21.2 °F 13.6 °F 17.6 °F 86% 30.14 in 10.0 mi SSE 5.8 mph - N/A   Clear
6:13 AM 21.2 °F 13.6 °F 17.6 °F 86% 30.14 in 10.0 mi SSE 5.8 mph - N/A   Clear
6:33 AM 21.2 °F 10.9 °F 17.6 °F 86% 30.13 in 10.0 mi SSE 9.2 mph - N/A   Clear
6:53 AM 21.2 °F 11.7 °F 17.6 °F 86% 30.12 in 10.0 mi SSE 8.1 mph 16.1 mph N/A   Clear
7:13 AM 21.2 °F 10.9 °F 17.6 °F 86% 30.12 in 10.0 mi SSE 9.2 mph - N/A   Clear
7:33 AM 21.2 °F 11.7 °F 17.6 °F 86% 30.12 in 10.0 mi SSE 8.1 mph - N/A   Clear
7:53 AM 21.2 °F 10.1 °F 17.6 °F 86% 30.11 in 10.0 mi SSE 10.4 mph - N/A   Clear
8:13 AM 23.0 °F 12.4 °F 17.6 °F 80% 30.10 in 10.0 mi SE 10.4 mph 17.3 mph N/A   Clear
8:33 AM 23.0 °F 11.7 °F 17.6 °F 80% 30.10 in 10.0 mi SE 11.5 mph 17.3 mph N/A   Clear
8:53 AM 24.8 °F 14.6 °F 17.6 °F 74% 30.09 in 10.0 mi SE 10.4 mph 18.4 mph N/A   Clear
9:13 AM 24.8 °F 15.3 °F 17.6 °F 74% 30.08 in 10.0 mi SSE 9.2 mph - N/A   Clear
9:33 AM 24.8 °F 16.1 °F 17.6 °F 74% 30.08 in 10.0 mi SSE 8.1 mph 18.4 mph N/A   Clear
9:53 AM 26.6 °F 16.8 °F 19.4 °F 74% 30.07 in 10.0 mi SE 10.4 mph - N/A   Clear
10:13 AM 26.6 °F 17.5 °F 17.6 °F 69% 30.06 in 10.0 mi SE 9.2 mph - N/A   Clear
10:33 AM 28.4 °F 20.4 °F 19.4 °F 69% 30.05 in 10.0 mi SE 8.1 mph - N/A   Clear
10:53 AM 28.4 °F 19.1 °F 19.4 °F 69% 30.03 in 10.0 mi SSE 10.4 mph 20.7 mph N/A   Clear
11:13 AM 28.4 °F 19.7 °F 17.6 °F 64% 30.02 in 10.0 mi SSE 9.2 mph 16.1 mph N/A   Clear
11:33 AM 30.2 °F 21.3 °F 17.6 °F 60% 30.01 in 10.0 mi SSE 10.4 mph 18.4 mph N/A   Clear
11:53 AM 30.2 °F 21.3 °F 17.6 °F 60% 29.99 in 10.0 mi SE 10.4 mph 17.3 mph N/A   Clear
12:13 PM 30.2 °F 19.8 °F 17.6 °F 60% 29.97 in 10.0 mi SE 13.8 mph 18.4 mph N/A   Clear
12:33 PM 32.0 °F 22.5 °F 19.4 °F 60% 29.95 in 10.0 mi SE 12.7 mph 18.4 mph N/A   Clear
12:53 PM 33.8 °F 25.8 °F 17.6 °F 52% 29.93 in 10.0 mi SE 10.4 mph 21.9 mph N/A   Clear
1:13 PM 35.6 °F 27.1 °F 17.6 °F 48% 29.91 in 10.0 mi SE 12.7 mph 18.4 mph N/A   Clear
1:33 PM 35.6 °F 26.2 °F 17.6 °F 48% 29.90 in 10.0 mi SE 15.0 mph 25.3 mph N/A   Clear
1:53 PM 35.6 °F 27.1 °F 19.4 °F 52% 29.88 in 10.0 mi SSE 12.7 mph 21.9 mph N/A   Clear
2:13 PM 35.6 °F 26.2 °F 19.4 °F 52% 29.87 in 10.0 mi SSE 15.0 mph 28.8 mph N/A   Clear
2:33 PM 35.6 °F 25.2 °F 19.4 °F 52% 29.86 in 10.0 mi SSE 18.4 mph 23.0 mph N/A   Clear
2:53 PM 35.6 °F 26.2 °F 19.4 °F 52% 29.86 in 10.0 mi SSE 15.0 mph 23.0 mph N/A   Clear
3:13 PM 35.6 °F 26.6 °F 19.4 °F 52% 29.84 in 10.0 mi SSE 13.8 mph 27.6 mph N/A   Clear
3:33 PM 35.6 °F 28.6 °F 21.2 °F 56% 29.83 in 10.0 mi SSE 9.2 mph 19.6 mph N/A   Clear
3:53 PM 35.6 °F 28.0 °F 21.2 °F 56% 29.82 in 10.0 mi SSE 10.4 mph 18.4 mph N/A   Clear
4:13 PM 35.6 °F 27.5 °F 21.2 °F 56% 29.81 in 10.0 mi SSE 11.5 mph 18.4 mph N/A   Clear
4:33 PM 35.6 °F 27.5 °F 21.2 °F 56% 29.81 in 10.0 mi SSE 11.5 mph 18.4 mph N/A   Clear
4:53 PM 35.6 °F 28.0 °F 21.2 °F 56% 29.79 in 10.0 mi SSE 10.4 mph 19.6 mph N/A   Clear
5:13 PM 37.4 °F 29.3 °F 21.2 °F 52% 29.78 in 10.0 mi SSE 12.7 mph 21.9 mph N/A   Clear
5:33 PM 37.4 °F 28.9 °F 21.2 °F 52% 29.77 in 10.0 mi SSE 13.8 mph 25.3 mph N/A   Clear
5:53 PM 37.4 °F 29.3 °F 21.2 °F 52% 29.76 in 10.0 mi SSE 12.7 mph 23.0 mph N/A   Clear
6:13 PM 37.4 °F 32.1 °F 23.0 °F 56% 29.76 in 10.0 mi SSE 6.9 mph 20.7 mph N/A   Clear
6:33 PM 37.4 °F 28.2 °F 23.0 °F 56% 29.77 in 10.0 mi SSE 16.1 mph 24.2 mph N/A   Clear
6:53 PM 37.4 °F 27.8 °F 24.8 °F 60% 29.78 in 10.0 mi South 17.3 mph 21.9 mph N/A   Clear
7:13 PM 37.4 °F 30.3 °F 24.8 °F 60% 29.77 in 10.0 mi SSE 10.4 mph 23.0 mph N/A   Clear
7:33 PM 37.4 °F 29.3 °F 24.8 °F 60% 29.76 in 10.0 mi South 12.7 mph 21.9 mph N/A   Clear
7:53 PM 37.4 °F 28.9 °F 24.8 °F 60% 29.77 in 10.0 mi South 13.8 mph 18.4 mph N/A   Clear
8:13 PM 39.2 °F 30.5 °F 26.6 °F 61% 29.76 in 10.0 mi South 16.1 mph 24.2 mph N/A   Clear
8:33 PM 39.2 °F 29.8 °F 26.6 °F 61% 29.74 in 10.0 mi SSE 18.4 mph 28.8 mph N/A   Clear
8:53 PM 39.2 °F 30.2 °F 26.6 °F 61% 29.74 in 10.0 mi SSE 17.3 mph 27.6 mph N/A   Clear
9:13 PM 39.2 °F 29.0 °F 26.6 °F 61% 29.73 in 10.0 mi South 21.9 mph 25.3 mph N/A   Clear
9:33 PM 39.2 °F 30.2 °F 26.6 °F 61% 29.72 in 10.0 mi South 17.3 mph 29.9 mph N/A   Clear
9:53 PM 39.2 °F 29.8 °F 26.6 °F 61% 29.72 in 10.0 mi South 18.4 mph 28.8 mph N/A   Clear
10:13 PM 39.2 °F 31.2 °F 26.6 °F 61% 29.71 in 10.0 mi South 13.8 mph 25.3 mph N/A   Clear
10:33 PM 39.2 °F 29.8 °F 28.4 °F 65% 29.71 in 10.0 mi South 18.4 mph 24.2 mph N/A   Clear
10:53 PM 39.2 °F 29.8 °F 28.4 °F 65% 29.71 in 10.0 mi South 18.4 mph 26.5 mph N/A   Clear
11:13 PM 39.2 °F 30.5 °F 28.4 °F 65% 29.72 in 10.0 mi South 16.1 mph 24.2 mph N/A   Clear
11:33 PM 39.2 °F 30.2 °F 28.4 °F 65% 29.72 in 10.0 mi South 17.3 mph 26.5 mph N/A   Clear
11:53 PM 41.0 °F 32.2 °F 28.4 °F 61% 29.71 in 10.0 mi South 18.4 mph 27.6 mph N/A   Clear